{"data":{"norad_id":59931,"intl_designator":"2024-106K","name":"STARLINK-31960","alt_names":[],"object_type":"PAYLOAD","status":"ACTIVE","operator":null,"country":"US","launch_date":"2024-06-01","launch_site_code":"AFETR","launch_vehicle":null,"mission":null,"orbit_class":"UNKNOWN","rcs_meters":null,"size_class":null,"mass_kg":null,"dimensions":null,"purposes":["comms"],"wikipedia_slug":null,"has_3d_model":false,"image_url":null,"decayed_at":null,"tle_current":{"epoch":"2026-09-21T04:22:50.976480Z","epoch_age_seconds":115557,"freshness":"FRESH","line1":"1 59931U 24106K   26264.18253445  .00000298  00000+0  20355-4 0  9999","line2":"2 59931  43.0030 308.2432 0001079 248.2739 111.7998 15.27577529130429","mean_motion":15.27577529,"eccentricity":0.0001079,"inclination_deg":43.003,"raan_deg":308.2432,"arg_perigee_deg":248.2739,"mean_anomaly_deg":111.7998,"bstar":2.0355e-5,"rev_number":13042,"period_min":94.266901198964,"perigee_km":482.31617233444,"apogee_km":483.79681789069,"semimajor_km":6861.1934951126,"source":"CELESTRAK","updated_at":"2026-09-22T09:00:49.112498Z"}}}